When you browse on this site, cookies collect data to enhance your experience and personalize the content and advertising you see.
Visit our Privacy Policy to learn more. By continuing to use the site, you agree to this use of cookies and data.
  • In Hungary
  • List of Countries
  • For 7 days
  • Water Temperature
  • Satellite Maps
  • Weather Map
  • News
  • Weather Widgets
  • user-avatar
    Login

    Hourly Weather Lorca

    Today, 18 November, Sunday

    Time Temperature Precipitation Wind Pressure Humidity
    00:00 +13°C° 0 mm 3 mps 727 mmHg 91%
    01:00 +13°C° 0 mm 3 mps 726 mmHg 90%
    02:00 +13°C° 0 mm 3 mps 726 mmHg 90%
    03:00 +13°C° 0 mm 3 mps 725 mmHg 90%
    04:00 +12°C° 0.1 mm 3 mps 725 mmHg 90%
    05:00 +12°C° 0.1 mm 3 mps 724 mmHg 90%
    06:00 +12°C° 0.1 mm 3 mps 724 mmHg 90%
    07:00 +13°C° 0.1 mm 3 mps 724 mmHg 88%
    08:00 +13°C° 0.1 mm 4 mps 724 mmHg 87%
    09:00 +13°C° 0.1 mm 4 mps 724 mmHg 85%
    10:00 +13°C° 0.4 mm 4 mps 723 mmHg 84%
    11:00 +14°C° 0.4 mm 5 mps 723 mmHg 83%
    12:00 +14°C° 0.4 mm 5 mps 723 mmHg 83%
    13:00 +14°C° 0.8 mm 5 mps 723 mmHg 84%
    14:00 +14°C° 0.8 mm 5 mps 722 mmHg 85%
    15:00 +13°C° 0.8 mm 5 mps 722 mmHg 86%
    16:00 +13°C° 1.1 mm 4 mps 722 mmHg 87%
    17:00 +13°C° 1.1 mm 4 mps 722 mmHg 89%
    18:00 +13°C° 1.1 mm 4 mps 722 mmHg 90%
    19:00 +13°C° 1.9 mm 4 mps 721 mmHg 90%
    20:00 +13°C° 1.9 mm 4 mps 721 mmHg 91%
    21:00 +12°C° 1.9 mm 3 mps 721 mmHg 92%
    22:00 +12°C° 2.4 mm 3 mps 721 mmHg 91%
    23:00 +12°C° 2.4 mm 3 mps 721 mmHg 90%

    Tomorrow, 19 November, Monday

    Time Temperature Precipitation Wind Pressure Humidity
    00:00 +12°C° 2.4 mm 3 mps 720 mmHg 89%
    01:00 +12°C° 2.1 mm 3 mps 720 mmHg 89%
    02:00 +12°C° 2.1 mm 3 mps 720 mmHg 88%
    03:00 +11°C° 2.1 mm 3 mps 719 mmHg 88%
    04:00 +11°C° 1.5 mm 3 mps 719 mmHg 87%
    05:00 +11°C° 1.5 mm 3 mps 719 mmHg 86%
    06:00 +11°C° 1.5 mm 3 mps 719 mmHg 86%
    07:00 +11°C° 0.8 mm 3 mps 719 mmHg 84%
    08:00 +11°C° 0.8 mm 3 mps 719 mmHg 83%
    09:00 +12°C° 0.8 mm 3 mps 719 mmHg 81%
    10:00 +12°C° 0.5 mm 3 mps 719 mmHg 79%
    11:00 +12°C° 0.5 mm 3 mps 719 mmHg 76%
    12:00 +13°C° 0.5 mm 3 mps 719 mmHg 74%
    13:00 +13°C° 0.3 mm 4 mps 719 mmHg 72%
    14:00 +14°C° 0.3 mm 4 mps 719 mmHg 70%
    15:00 +14°C° 0.3 mm 4 mps 719 mmHg 68%
    16:00 +14°C° 0.1 mm 3 mps 719 mmHg 70%
    17:00 +13°C° 0.1 mm 3 mps 720 mmHg 73%
    18:00 +14°C° 0.1 mm 2 mps 720 mmHg 75%
    19:00 +13°C° 0 mm 2 mps 720 mmHg 76%
    20:00 +13°C° 0 mm 2 mps 720 mmHg 77%
    21:00 +13°C° 0 mm 2 mps 721 mmHg 78%
    22:00 +13°C° 0 mm 2 mps 721 mmHg 78%
    23:00 +13°C° 0 mm 2 mps 721 mmHg 77%

    Day after tomorrow, 20 November, Tuesday

    Time Temperature Precipitation Wind Pressure Humidity
    00:00 +13°C° 0 mm 2 mps 721 mmHg 77%
    01:00 +12°C° 0 mm 2 mps 721 mmHg 77%
    02:00 +12°C° 0 mm 2 mps 721 mmHg 77%
    03:00 +12°C° 0 mm 2 mps 721 mmHg 77%
    04:00 +12°C° 0 mm 2 mps 720 mmHg 77%
    05:00 +10°C° 0 mm 2 mps 720 mmHg 77%
    06:00 +10°C° 0 mm 2 mps 720 mmHg 77%
    07:00 +12°C° 0.1 mm 2 mps 720 mmHg 73%
    08:00 +12°C° 0.1 mm 3 mps 721 mmHg 69%
    09:00 +12°C° 0.1 mm 3 mps 721 mmHg 65%
    10:00 +12°C° 0.9 mm 3 mps 721 mmHg 68%
    11:00 +12°C° 0.9 mm 4 mps 721 mmHg 72%
    12:00 +12°C° 0.9 mm 4 mps 721 mmHg 75%
    13:00 +13°C° 0.1 mm 5 mps 721 mmHg 69%
    14:00 +14°C° 0.1 mm 5 mps 721 mmHg 62%
    15:00 +15°C° 0.1 mm 6 mps 721 mmHg 56%
    16:00 +14°C° 0.1 mm 5 mps 721 mmHg 59%
    17:00 +13°C° 0.1 mm 5 mps 721 mmHg 63%
    18:00 +12°C° 0.1 mm 5 mps 721 mmHg 66%
    19:00 +12°C° 0 mm 5 mps 722 mmHg 67%
    20:00 +10°C° 0 mm 5 mps 723 mmHg 67%
    21:00 +10°C° 0 mm 5 mps 723 mmHg 68%
    22:00 +10°C° 0 mm 5 mps 723 mmHg 70%
    23:00 +11°C° 0 mm 4 mps 724 mmHg 72%

    21 November, Wednesday

    Time Temperature Precipitation Wind Pressure Humidity
    00:00 +11°C° 0 mm 4 mps 724 mmHg 74%
    01:00 +11°C° 0 mm 4 mps 724 mmHg 74%
    02:00 +10°C° 0 mm 4 mps 724 mmHg 75%
    03:00 +10°C° 0 mm 4 mps 724 mmHg 75%
    04:00 +10°C° 0 mm 3 mps 725 mmHg 76%
    05:00 +10°C° 0 mm 3 mps 725 mmHg 76%
    06:00 +10°C° 0 mm 3 mps 725 mmHg 76%
    07:00 +11°C° 0 mm 3 mps 726 mmHg 72%
    08:00 +12°C° 0 mm 3 mps 727 mmHg 68%
    09:00 +13°C° 0 mm 3 mps 727 mmHg 64%
    10:00 +14°C° 0 mm 3 mps 727 mmHg 60%
    11:00 +15°C° 0 mm 4 mps 727 mmHg 55%
    12:00 +17°C° 0 mm 4 mps 727 mmHg 51%
    13:00 +17°C° 0 mm 4 mps 727 mmHg 52%
    14:00 +16°C° 0 mm 5 mps 727 mmHg 52%
    15:00 +16°C° 0 mm 5 mps 727 mmHg 53%
    16:00 +15°C° 0 mm 4 mps 727 mmHg 59%
    17:00 +14°C° 0 mm 4 mps 728 mmHg 64%
    18:00 +13°C° 0 mm 4 mps 728 mmHg 70%
    19:00 +12°C° 0 mm 3 mps 728 mmHg 71%
    20:00 +12°C° 0 mm 3 mps 729 mmHg 71%
    21:00 +12°C° 0 mm 2 mps 729 mmHg 71%
    22:00 +12°C° 0 mm 2 mps 729 mmHg 71%
    23:00 +12°C° 0 mm 2 mps 729 mmHg 71%

    22 November, Thursday

    Time Temperature Precipitation Wind Pressure Humidity
    00:00 +10°C° 0 mm 2 mps 729 mmHg 70%
    01:00 +10°C° 0 mm 2 mps 729 mmHg 69%
    02:00 +10°C° 0 mm 2 mps 729 mmHg 68%
    03:00 +11°C° 0 mm 1 mps 729 mmHg 67%
    04:00 +10°C° 0 mm 1 mps 729 mmHg 67%
    05:00 +10°C° 0 mm 1 mps 729 mmHg 67%
    06:00 +10°C° 0 mm 1 mps 729 mmHg 67%
    07:00 +11°C° 0 mm 1 mps 729 mmHg 63%
    08:00 +12°C° 0 mm 1 mps 730 mmHg 59%
    09:00 +13°C° 0 mm 1 mps 730 mmHg 55%
    10:00 +14°C° 0 mm 1 mps 730 mmHg 53%
    11:00 +15°C° 0 mm 1 mps 730 mmHg 50%
    12:00 +16°C° 0 mm 1 mps 730 mmHg 48%
    13:00 +16°C° 0 mm 2 mps 730 mmHg 47%
    14:00 +16°C° 0 mm 2 mps 730 mmHg 47%
    15:00 +17°C° 0 mm 3 mps 730 mmHg 47%
    16:00 +16°C° 0 mm 3 mps 730 mmHg 53%
    17:00 +15°C° 0 mm 2 mps 730 mmHg 59%
    18:00 +13°C° 0 mm 2 mps 731 mmHg 65%
    19:00 +13°C° 0 mm 2 mps 731 mmHg 65%
    20:00 +13°C° 0 mm 2 mps 731 mmHg 66%
    21:00 +13°C° 0 mm 2 mps 732 mmHg 67%
    22:00 +12°C° 0 mm 2 mps 732 mmHg 67%
    23:00 +12°C° 0 mm 2 mps 732 mmHg 68%

    23 November, Friday

    Time Temperature Precipitation Wind Pressure Humidity
    00:00 +10°C° 0 mm 2 mps 732 mmHg 68%
    01:00 +11°C° 0 mm 1 mps 732 mmHg 68%
    02:00 +11°C° 0 mm 1 mps 732 mmHg 69%
    03:00 +10°C° 0 mm 1 mps 732 mmHg 69%
    04:00 +10°C° 0 mm 1 mps 732 mmHg 69%
    05:00 +10°C° 0 mm 1 mps 732 mmHg 69%
    06:00 +10°C° 0 mm 1 mps 732 mmHg 69%
    07:00 +11°C° 0 mm 1 mps 733 mmHg 65%
    08:00 +12°C° 0 mm 1 mps 733 mmHg 60%
    09:00 +13°C° 0 mm 1 mps 733 mmHg 55%
    10:00 +14°C° 0 mm 2 mps 733 mmHg 55%
    11:00 +15°C° 0 mm 2 mps 733 mmHg 55%
    12:00 +15°C° 0 mm 2 mps 733 mmHg 55%
    13:00 +16°C° 0 mm 3 mps 732 mmHg 56%
    14:00 +16°C° 0 mm 3 mps 732 mmHg 58%
    15:00 +16°C° 0 mm 3 mps 731 mmHg 59%
    16:00 +14°C° 0 mm 3 mps 731 mmHg 66%
    17:00 +13°C° 0 mm 3 mps 731 mmHg 74%
    18:00 +12°C° 0 mm 3 mps 731 mmHg 81%
    19:00 +13°C° 0 mm 2 mps 731 mmHg 83%
    20:00 +13°C° 0 mm 2 mps 731 mmHg 85%
    21:00 +13°C° 0 mm 2 mps 731 mmHg 88%
    22:00 +13°C° 0 mm 2 mps 731 mmHg 88%
    23:00 +13°C° 0 mm 1 mps 731 mmHg 88%
    Show more